• In Russia
  • List of Countries
  • For 7 days
  • Water Temperature
  • Satellite Maps
  • Weather Map
  • Weather Widgets
  • user-avatar
    Login

    Hourly Weather Hohenems

    Today, 23 February, Saturday

    Time Temperature Precipitation Wind Pressure Humidity
    00:00 +4°C° 0 mm 1 mps 723 mmHg 88%
    01:00 +3°C° 0 mm 2 mps 724 mmHg 87%
    02:00 +3°C° 0 mm 2 mps 723 mmHg 85%
    03:00 +2°C° 0 mm 2 mps 723 mmHg 83%
    04:00 +1°C° 0 mm 2 mps 723 mmHg 81%
    05:00 +1°C° 0 mm 2 mps 723 mmHg 78%
    06:00 +1°C° 0 mm 2 mps 723 mmHg 74%
    07:00 -1°C° 0 mm 2 mps 724 mmHg 75%
    08:00 +2°C° 0 mm 2 mps 723 mmHg 70%
    09:00 +5°C° 0 mm 1 mps 723 mmHg 66%
    10:00 +7°C° 0 mm 1 mps 723 mmHg 61%
    11:00 +7°C° 0 mm 2 mps 723 mmHg 61%
    12:00 +8°C° 0 mm 2 mps 723 mmHg 62%
    13:00 +9°C° 0 mm 2 mps 723 mmHg 62%
    14:00 +9°C° 0 mm 2 mps 723 mmHg 64%
    15:00 +8°C° 0 mm 2 mps 722 mmHg 66%
    16:00 +8°C° 0 mm 2 mps 722 mmHg 69%
    17:00 +7°C° 0 mm 2 mps 722 mmHg 71%
    18:00 +5°C° 0 mm 2 mps 722 mmHg 74%
    19:00 +3°C° 0 mm 2 mps 723 mmHg 77%
    20:00 +3°C° 0 mm 2 mps 723 mmHg 75%
    21:00 +4°C° 0 mm 1 mps 723 mmHg 72%
    22:00 +3°C° 0 mm 1 mps 723 mmHg 70%
    23:00 +3°C° 0 mm 1 mps 723 mmHg 68%

    Tomorrow, 24 February, Sunday

    Time Temperature Precipitation Wind Pressure Humidity
    00:00 +3°C° 0 mm 1 mps 723 mmHg 66%
    01:00 +3°C° 0 mm 1 mps 723 mmHg 64%
    02:00 +3°C° 0 mm 1 mps 723 mmHg 63%
    03:00 +3°C° 0 mm 1 mps 723 mmHg 62%
    04:00 +3°C° 0 mm 1 mps 723 mmHg 60%
    05:00 +3°C° 0 mm 1 mps 723 mmHg 60%
    06:00 +3°C° 0 mm 1 mps 723 mmHg 61%
    07:00 +3°C° 0 mm 1 mps 723 mmHg 61%
    08:00 +4°C° 0 mm 1 mps 723 mmHg 60%
    09:00 +6°C° 0 mm 1 mps 723 mmHg 59%
    10:00 +8°C° 0 mm 1 mps 724 mmHg 58%
    11:00 +9°C° 0 mm 1 mps 724 mmHg 58%
    12:00 +10°C° 0 mm 1 mps 724 mmHg 58%
    13:00 +11°C° 0 mm 1 mps 724 mmHg 58%
    14:00 +11°C° 0 mm 1 mps 723 mmHg 61%
    15:00 +11°C° 0 mm 1 mps 723 mmHg 64%
    16:00 +11°C° 0 mm 1 mps 723 mmHg 67%
    17:00 +9°C° 0 mm 1 mps 723 mmHg 71%
    18:00 +8°C° 0 mm 1 mps 724 mmHg 75%
    19:00 +6°C° 0 mm 1 mps 724 mmHg 80%
    20:00 +6°C° 0 mm 1 mps 724 mmHg 79%
    21:00 +5°C° 0 mm 1 mps 724 mmHg 78%
    22:00 +5°C° 0 mm 1 mps 724 mmHg 77%
    23:00 +5°C° 0 mm 1 mps 724 mmHg 76%

    Day after tomorrow, 25 February, Monday

    Time Temperature Precipitation Wind Pressure Humidity
    00:00 +5°C° 0 mm 1 mps 724 mmHg 76%
    01:00 +5°C° 0 mm 1 mps 724 mmHg 75%
    02:00 +5°C° 0 mm 1 mps 724 mmHg 75%
    03:00 +5°C° 0 mm 1 mps 724 mmHg 75%
    04:00 +5°C° 0 mm 1 mps 723 mmHg 74%
    05:00 +5°C° 0 mm 1 mps 723 mmHg 74%
    06:00 +5°C° 0 mm 1 mps 723 mmHg 74%
    07:00 +5°C° 0 mm 1 mps 723 mmHg 74%
    08:00 +6°C° 0 mm 1 mps 724 mmHg 72%
    09:00 +8°C° 0 mm 1 mps 724 mmHg 70%
    10:00 +10°C° 0 mm 1 mps 724 mmHg 68%
    11:00 +11°C° 0 mm 1 mps 724 mmHg 67%
    12:00 +12°C° 0 mm 1 mps 724 mmHg 66%
    13:00 +13°C° 0 mm 1 mps 724 mmHg 66%
    14:00 +13°C° 0 mm 2 mps 723 mmHg 69%
    15:00 +13°C° 0 mm 2 mps 723 mmHg 71%
    16:00 +13°C° 0 mm 2 mps 723 mmHg 74%
    17:00 +10°C° 0 mm 2 mps 723 mmHg 79%
    18:00 +8°C° 0 mm 2 mps 723 mmHg 83%
    19:00 +7°C° 0 mm 1 mps 724 mmHg 88%
    20:00 +7°C° 0 mm 1 mps 724 mmHg 83%
    21:00 +7°C° 0 mm 1 mps 724 mmHg 78%
    22:00 +7°C° 0 mm 1 mps 724 mmHg 73%
    23:00 +6°C° 0 mm 1 mps 724 mmHg 70%

    26 February, Tuesday

    Time Temperature Precipitation Wind Pressure Humidity
    00:00 +6°C° 0 mm 1 mps 724 mmHg 67%
    01:00 +6°C° 0 mm 1 mps 724 mmHg 65%
    02:00 +6°C° 0 mm 1 mps 724 mmHg 64%
    03:00 +6°C° 0 mm 1 mps 723 mmHg 62%
    04:00 +5°C° 0 mm 1 mps 723 mmHg 61%
    05:00 +5°C° 0 mm 1 mps 723 mmHg 60%
    06:00 +5°C° 0 mm 1 mps 723 mmHg 59%
    07:00 +5°C° 0 mm 1 mps 723 mmHg 58%
    08:00 +7°C° 0 mm 1 mps 723 mmHg 57%
    09:00 +9°C° 0 mm 1 mps 723 mmHg 56%
    10:00 +11°C° 0 mm 1 mps 723 mmHg 55%
    11:00 +12°C° 0 mm 1 mps 723 mmHg 55%
    12:00 +13°C° 0 mm 1 mps 723 mmHg 55%
    13:00 +14°C° 0 mm 1 mps 723 mmHg 55%
    14:00 +14°C° 0 mm 1 mps 723 mmHg 57%
    15:00 +14°C° 0 mm 1 mps 723 mmHg 60%
    16:00 +13°C° 0 mm 1 mps 722 mmHg 63%
    17:00 +12°C° 0 mm 1 mps 723 mmHg 68%
    18:00 +10°C° 0 mm 1 mps 723 mmHg 73%
    19:00 +8°C° 0 mm 1 mps 723 mmHg 79%
    20:00 +8°C° 0 mm 1 mps 723 mmHg 76%
    21:00 +7°C° 0 mm 1 mps 723 mmHg 73%
    22:00 +7°C° 0 mm 1 mps 723 mmHg 70%
    23:00 +6°C° 0 mm 1 mps 723 mmHg 67%

    27 February, Wednesday

    Time Temperature Precipitation Wind Pressure Humidity
    00:00 +6°C° 0 mm 1 mps 723 mmHg 63%
    01:00 +6°C° 0 mm 1 mps 722 mmHg 60%
    02:00 +6°C° 0 mm 1 mps 722 mmHg 58%
    03:00 +6°C° 0 mm 1 mps 722 mmHg 56%
    04:00 +6°C° 0 mm 1 mps 721 mmHg 54%
    05:00 +6°C° 0 mm 1 mps 721 mmHg 53%
    06:00 +6°C° 0 mm 1 mps 721 mmHg 53%
    07:00 +6°C° 0 mm 1 mps 721 mmHg 53%
    08:00 +8°C° 0 mm 1 mps 721 mmHg 53%
    09:00 +10°C° 0 mm 1 mps 721 mmHg 53%
    10:00 +12°C° 0 mm 1 mps 721 mmHg 53%
    11:00 +13°C° 0 mm 1 mps 721 mmHg 52%
    12:00 +15°C° 0 mm 1 mps 720 mmHg 51%
    13:00 +16°C° 0 mm 1 mps 720 mmHg 50%
    14:00 +16°C° 0 mm 1 mps 720 mmHg 53%
    15:00 +15°C° 0 mm 1 mps 720 mmHg 56%
    16:00 +15°C° 0 mm 1 mps 719 mmHg 59%
    17:00 +13°C° 0 mm 1 mps 719 mmHg 63%
    18:00 +11°C° 0 mm 1 mps 719 mmHg 68%
    19:00 +10°C° 0 mm 1 mps 719 mmHg 73%
    20:00 +9°C° 0 mm 1 mps 719 mmHg 73%
    21:00 +9°C° 0 mm 1 mps 720 mmHg 72%
    22:00 +9°C° 0 mm 1 mps 720 mmHg 72%
    23:00 +9°C° 0 mm 1 mps 720 mmHg 71%

    28 February, Thursday

    Time Temperature Precipitation Wind Pressure Humidity
    00:00 +8°C° 0 mm 2 mps 720 mmHg 70%
    01:00 +7°C° 0 mm 2 mps 719 mmHg 69%
    02:00 +7°C° 0 mm 2 mps 719 mmHg 68%
    03:00 +7°C° 0 mm 2 mps 719 mmHg 67%
    04:00 +7°C° 0 mm 2 mps 719 mmHg 65%
    05:00 +7°C° 0 mm 2 mps 719 mmHg 65%
    06:00 +6°C° 0 mm 2 mps 719 mmHg 64%
    07:00 +6°C° 0 mm 2 mps 719 mmHg 63%
    08:00 +9°C° 0 mm 1 mps 719 mmHg 61%
    09:00 +11°C° 0 mm 1 mps 719 mmHg 58%
    10:00 +13°C° 0 mm 1 mps 719 mmHg 55%
    11:00 +14°C° 0 mm 1 mps 718 mmHg 51%
    12:00 +15°C° 0 mm 1 mps 718 mmHg 47%
    13:00 +16°C° 0 mm 1 mps 718 mmHg 43%
    14:00 +15°C° 0 mm 1 mps 717 mmHg 46%
    15:00 +15°C° 0 mm 1 mps 717 mmHg 49%
    16:00 +15°C° 0 mm 1 mps 717 mmHg 51%
    17:00 +13°C° 0 mm 1 mps 717 mmHg 58%
    18:00 +11°C° 0 mm 1 mps 717 mmHg 65%
    19:00 +8°C° 0 mm 0 mps 718 mmHg 72%
    20:00 +8°C° 0 mm 0 mps 718 mmHg 74%
    21:00 +7°C° 0 mm 0 mps 718 mmHg 77%
    22:00 +7°C° 0 mm 0 mps 718 mmHg 79%
    23:00 +8°C° 0 mm 1 mps 718 mmHg 81%
    Show more